Find Starlink 36900

NORAD ID: 67973 Int'l Des: 2026-038 Owner: SPXS Country: US Constellation: starlink operational
LEOCIRCULARRETROGRADE

Current View

Loading 3D Globe...

About Starlink 36900

Description loading...

Upcoming Passes

Passes for default location (London). Set your location on the main map for personalized predictions.

Altitude History

Loading altitude history...

Two-Line Element Set

1 67973U 26038N 26150.01589860 .00037674 00000-0 11630-2 0 9992
2 67973 97.2834 159.9900 0002231 97.9407 262.2089 15.33457114 15700
Epoch: May 30, 2026 • Age: 13 hours

Current Status

Altitude 468.2 km
Velocity 7.64 km/s
Sub-Earth Point 28.72°N, 107.06°W
Launch Date Feb 25, 2026
Age 0.2 years
Type internet

Technical Details

Classification Payload
Mass 575.00 kg
Dry Mass 530.00 kg
Total Mass 575.00 kg
Length 0.30 m
Diameter 4.10 m
Span 29.00 m
Shape Box + pan
Manufacturer SPXS
Bus Type Starlink V2MO
Phase Status In Orbit
Owner/State SPXS/US

Most Searched